Asheville, NC

3:22 PM EDT on April 22, 2018 (GMT -0400)
Asheville Regional

Weather History for KAVL - March, 2014

Change the Weather History Date:

Friday, March 14, 2014

  Actual Average Record
Temperature  
Mean Temperature 41 °F 46 °F  
Max Temperature 60 °F 58 °F 82 °F (1973)
Min Temperature 22 °F 35 °F 8 °F (1993)
Degree Days  
Heating Degree Days 24 18  
Month to date heating degree days 286 280  
Since 1 July heating degree days 3605 3497  
Cooling Degree Days 0 0  
Month to date cooling degree days 0 0  
Year to date cooling degree days 0 0  
Moisture  
Dew Point 17 °F    
Average Humidity 48    
Maximum Humidity 77    
Minimum Humidity 18    
Precipitation  
Precipitation 0.00 in 0.13 in 1.41 in (1946)
Month to date precipitation 0.78 1.73  
Year to date precipitation 6.13 9.16  
Snow  
Snow 0.00 in 0.10 in 2.00 in (1924)
Month to date snowfall T 1.0  
Since 1 July snowfall 9.4 8.3  
Snow Depth 0.00 in    
Sea Level Pressure  
Sea Level Pressure 30.19 in    
Wind  
Wind Speed 8 mph (South)    
Max Wind Speed 24 mph    
Max Gust Speed 31 mph    
Visibility 10 miles    
Events      
T = Trace of Precipitation, MM = Missing Value Source: NWS Daily Summary

Daily Weather History Graph

Daily Weather History Graph

Search for Another Location

Airport or City:

Astronomy

Mar. 14, 2014 Rise Set
Actual Time 7:42 AM EDT 7:36 PM EDT
Civil Twilight 7:16 AM EDT 8:02 PM EDT
Nautical Twilight 6:47 AM EDT 8:31 PM EDT
Astronomical Twilight 6:17 AM EDT 9:01 PM EDT
Moon 6:00 PM EDT (3/14) 6:18 AM EDT (3/14)
Length of Visible Light 12h 45m
Length of Day
11h 54m
Waxing Gibbous, 96% of the Moon is Illuminated
Mar 14
Waxing Gibbous
Mar 16
Full
Mar 23
Last Quarter
Mar 30
New
Apr 7
First Quarter

Hourly Weather History & Observations

Time (EDT) Temp. Windchill Dew Point Humidity Pressure Visibility Wind Dir Wind Speed Gust Speed Precip Events Conditions
12:54 AM 26.1 °F 20.5 °F 12.9 °F 58% 30.23 in - NNW 4.6 mph - N/A   Clear
1:54 AM 26.1 °F - 16.0 °F 66% 30.25 in - Calm Calm - N/A   Clear
2:54 AM 25.0 °F - 14.0 °F 63% 30.26 in - Calm Calm - N/A   Clear
3:54 AM 25.0 °F 20.7 °F 15.1 °F 66% 30.26 in - NNW 3.5 mph - N/A   Clear
4:54 AM 24.1 °F 19.7 °F 14.0 °F 65% 30.25 in - North 3.5 mph - N/A   Clear
5:54 AM 24.1 °F - 12.9 °F 62% 30.26 in - Calm Calm - N/A   Clear
6:54 AM 25.0 °F - 12.0 °F 58% 30.27 in 10.0 mi Calm Calm - N/A   Clear
7:54 AM 21.9 °F 17.2 °F 16.0 °F 78% 30.29 in 10.0 mi SW 3.5 mph - N/A   Clear
8:54 AM 28.0 °F - 16.0 °F 61% 30.30 in 10.0 mi Calm Calm - N/A   Clear
9:54 AM 33.1 °F - 18.0 °F 54% 30.30 in 10.0 mi Calm Calm - N/A   Clear
10:54 AM 39.9 °F 37.8 °F 12.9 °F 33% 30.28 in 10.0 mi SE 3.5 mph - N/A   Clear
11:54 AM 48.9 °F - 15.1 °F 26% 30.25 in 10.0 mi SSE 9.2 mph - N/A   Clear
12:54 PM 55.0 °F - 16.0 °F 22% 30.21 in 10.0 mi South 11.5 mph 19.6 mph N/A   Clear
1:54 PM 59.0 °F - 17.1 °F 20% 30.17 in 10.0 mi South 21.9 mph 28.8 mph N/A   Clear
2:54 PM 59.0 °F - 16.0 °F 19% 30.14 in 10.0 mi South 19.6 mph 26.5 mph N/A   Clear
3:54 PM 55.9 °F - 17.1 °F 22% 30.11 in 10.0 mi South 21.9 mph 27.6 mph N/A   Clear
4:54 PM 55.0 °F - 17.1 °F 23% 30.09 in 10.0 mi South 18.4 mph 26.5 mph N/A   Clear
5:54 PM 55.9 °F - 17.1 °F 22% 30.09 in 10.0 mi South 18.4 mph 23.0 mph N/A   Clear
6:54 PM 54.0 °F - 18.0 °F 24% 30.09 in 10.0 mi South 12.7 mph 26.5 mph N/A   Clear
7:54 PM 51.1 °F - 19.0 °F 28% 30.10 in 10.0 mi South 11.5 mph - N/A   Clear
8:54 PM 50.0 °F - 21.0 °F 32% 30.12 in 10.0 mi SW 8.1 mph - N/A   Clear
9:54 PM 51.1 °F - 21.0 °F 31% 30.12 in 10.0 mi SSW 8.1 mph - N/A   Overcast
10:54 PM 50.0 °F - 21.9 °F 33% 30.09 in 10.0 mi SSE 4.6 mph - N/A   Overcast
11:54 PM 50.0 °F - 21.0 °F 32% 30.06 in 10.0 mi SSE 5.8 mph - N/A   Overcast